FW3961 Weather Reports


Display with metric or nautical units.
time (UTC)temp
F
wind
direction
speed
MPH
gust
MPH
rain 1hr
in
rain 24hr
in
rain mn
in
humidity
%
barometer
mb
20260503033146 61 315 0.0 2.0 0.00 0.01 0.01 81 1012.8
20260503032645 61 315 0.0 2.0 0.00 0.01 0.01 81 1013.0
20260503032148 61 13 0.0 1.0 0.00 0.01 0.01 81 1012.8
20260503031645 62 13 1.0 5.0 0.00 0.01 0.01 81 1012.7
20260503031146 62 13 1.0 5.0 0.00 0.01 0.01 81 1012.7
20260503030646 62 289 1.0 4.0 0.00 0.01 0.01 81 1012.5
20260503030145 62 278 1.0 4.0 0.00 0.01 0.01 81 1012.5
20260503025646 62 38 1.0 3.0 0.00 0.01 0.01 80 1012.8
20260503025144 62 79 1.0 3.0 0.00 0.01 0.01 80 1012.7
20260503024643 62 244 0.0 2.0 0.00 0.01 0.01 80 1012.5
20260503024143 62 238 1.0 3.0 0.00 0.01 0.01 80 1012.4
20260503024139 62 240 0.0 3.0 0.00 0.01 0.01 80 1012.4
20260503023139 62 277 0.0 3.0 0.00 0.01 0.01 79 1012.4
20260503022640 62 288 1.0 4.0 0.00 0.01 0.01 79 1012.4
20260503022139 62 295 1.0 4.0 0.00 0.01 0.01 78 1012.4
20260503021648 63 321 0.0 2.0 0.00 0.01 0.01 78 1012.6
20260503021639 63 311 0.0 3.0 0.00 0.01 0.01 78 1012.5
20260503020641 63 284 0.0 2.0 0.00 0.01 0.01 78 1012.7
20260503020137 63 54 0.0 2.0 0.00 0.01 0.01 78 1013.0
20260503015638 63 88 0.0 1.0 0.00 0.01 0.01 77 1013.3
20260503015137 63 88 0.0 1.0 0.00 0.01 0.01 78 1013.5
20260503014641 63 88 1.0 3.0 0.00 0.01 0.01 77 1013.7
20260503014635 63 88 0.0 1.0 0.00 0.01 0.01 78 1013.6
20260503013636 63 88 1.0 3.0 0.00 0.01 0.01 77 1014.0
20260503013135 63 78 0.0 3.0 0.00 0.01 0.01 77 1013.7
20260503012635 64 78 1.0 2.0 0.00 0.01 0.01 77 1013.9
20260503012137 64 84 2.0 3.0 0.00 0.01 0.01 76 1014.1
20260503012133 64 78 1.0 3.0 0.00 0.01 0.01 77 1014.1
20260503011125 64 67 1.0 2.0 0.00 0.01 0.01 76 1014.0
20260503010619 65 56 1.0 2.0 0.00 0.01 0.01 75 1013.7
20260503010113 65 56 1.0 2.0 0.00 0.01 0.01 75 1013.6
20260503010109 65 55 1.0 2.0 0.00 0.01 0.01 74 1013.6
20260503005100 65 42 1.0 2.0 0.00 0.01 0.01 74 1013.5
20260503004555 66 38 1.0 2.0 0.00 0.01 0.01 72 1013.4
20260503004551 66 5 1.0 3.0 0.00 0.01 0.01 72 1013.3
20260503003543 66 355 1.0 3.0 0.00 0.01 0.01 72 1013.3
20260503003037 66 54 1.0 4.0 0.00 0.01 0.01 72 1013.2
20260503002530 66 60 1.0 4.0 0.00 0.01 0.01 72 1013.3
20260503002526 66 28 1.0 3.0 0.00 0.01 0.01 73 1013.2
20260503001519 66 61 1.0 4.0 0.00 0.01 0.01 72 1013.2
20260503001012 66 61 1.0 4.0 0.00 0.01 0.01 72 1013.0
20260503000506 65 287 1.0 3.0 0.00 0.01 0.01 71 1013.0
20260503000000 66 225 0.0 3.0 0.00 0.01 0.01 72 1013.1
20260502235455 66 258 0.0 3.0 0.00 0.01 0.01 71 1013.1
20260502235318 66 63 1.0 4.0 0.00 0.01 0.01 72 1013.1
20260502235212 67 59 1.0 4.0 0.00 0.01 0.01 71 1013.2
20260502234819 66 288 1.0 4.0 0.00 0.01 0.01 70 1013.2
20260502233431 67 348 1.0 4.0 0.00 0.01 0.01 69 1013.1
20260502232925 66 55 2.0 4.0 0.00 0.01 0.01 69 1013.1
20260502232749 66 192 1.0 3.0 0.00 0.01 0.01 69 1013.2
20260502232646 66 5 1.0 8.0 0.00 0.01 0.01 71 1013.4
20260502231407 66 272 2.0 8.0 0.00 0.01 0.01 71 1013.5
20260502231229 66 65 2.0 5.0 0.00 0.01 0.01 70 1013.6
20260502231126 66 302 1.0 4.0 0.00 0.01 0.01 72 1013.8
20260502230730 66 53 1.0 4.0 0.00 0.01 0.01 70 1013.8
20260502225343 65 55 2.0 5.0 0.00 0.01 0.01 72 1013.8
20260502224837 65 28 1.0 5.0 0.00 0.01 0.01 72 1013.9
20260502224331 65 0 2.0 5.0 0.00 0.01 0.01 71 1014.1
20260502223825 65 350 2.0 4.0 0.00 0.01 0.01 72 1014.1
20260502223319 65 335 1.0 4.0 0.00 0.01 0.01 72 1014.3
20260502222813 65 65 1.0 4.0 0.00 0.01 0.01 73 1014.4
20260502222308 64 19 1.0 4.0 0.00 0.01 0.01 74 1014.4
20260502221801 64 259 1.0 5.0 0.00 0.01 0.01 74 1014.4
20260502221256 64 257 1.0 5.0 0.00 0.01 0.01 73 1014.5
20260502220749 64 36 1.0 4.0 0.00 0.01 0.01 74 1014.6
20260502220243 64 38 1.0 4.0 0.00 0.01 0.01 73 1014.6
20260502215737 64 289 1.0 5.0 0.00 0.01 0.01 74 1014.5
20260502215230 64 49 1.0 5.0 0.00 0.01 0.01 73 1014.5
20260502214735 64 314 1.0 4.0 0.00 0.01 0.01 73 1014.6
20260502214731 64 227 1.0 4.0 0.00 0.01 0.01 72 1014.6
20260502213729 64 313 1.0 3.0 0.00 0.01 0.01 73 1014.6
20260502213233 64 71 1.0 5.0 0.00 0.01 0.01 73 1014.9
20260502213229 64 300 1.0 5.0 0.00 0.01 0.01 73 1014.7
20260502212224 63 63 2.0 4.0 0.00 0.01 0.01 74 1015.0
20260502211725 63 292 2.0 4.0 0.00 0.01 0.01 73 1014.9
20260502211225 63 348 1.0 4.0 0.00 0.01 0.01 74 1015.0
20260502210725 63 267 1.0 5.0 0.00 0.01 0.01 73 1014.9
20260502210228 64 312 1.0 5.0 0.00 0.01 0.01 69 1015.1
20260502210224 63 314 1.0 5.0 0.00 0.01 0.01 71 1015.1
20260502205225 65 295 1.0 5.0 0.00 0.01 0.01 71 1015.3
20260502204724 64 219 1.0 5.0 0.00 0.01 0.01 71 1015.3
20260502204225 64 315 1.0 5.0 0.00 0.01 0.01 72 1015.4
20260502203725 64 315 2.0 7.0 0.00 0.01 0.01 72 1015.4
20260502203226 64 44 2.0 7.0 0.00 0.01 0.01 72 1015.5
20260502202723 63 232 2.0 5.0 0.00 0.01 0.01 71 1015.6
20260502202223 63 214 2.0 6.0 0.00 0.01 0.01 72 1015.6
20260502201727 63 317 2.0 8.0 0.00 0.01 0.01 73 1015.7
20260502201723 63 62 1.0 6.0 0.00 0.01 0.01 73 1015.6
20260502200723 62 313 2.0 8.0 0.00 0.01 0.01 74 1015.9
20260502200222 62 319 2.0 8.0 0.00 0.01 0.01 75 1015.8
20260502195724 61 84 2.0 8.0 0.00 0.01 0.01 78 1015.9
20260502195222 60 13 2.0 8.0 0.00 0.01 0.01 76 1016.1
20260502194723 60 0 1.0 5.0 0.00 0.01 0.01 77 1016.2
20260502194223 60 26 1.0 3.0 0.00 0.01 0.01 77 1016.4
20260502194219 60 301 1.0 5.0 0.00 0.01 0.01 76 1016.3
20260502193218 59 327 1.0 4.0 0.00 0.01 0.01 78 1016.3
20260502192727 59 5 1.0 5.0 0.00 0.01 0.01 78 1016.3
20260502192719 59 257 1.0 4.0 0.00 0.01 0.01 78 1016.4
20260502191722 59 275 1.0 5.0 0.00 0.01 0.01 77 1016.4
20260502191226 58 291 1.0 7.0 0.00 0.01 0.01 78 1016.4
20260502191222 59 350 1.0 7.0 0.00 0.01 0.01 79 1016.4
20260502190223 59 15 1.0 5.0 0.00 0.01 0.01 79 1016.3
20260502185721 58 313 1.0 5.0 0.00 0.01 0.01 81 1016.3
20260502185218 58 256 1.0 7.0 0.01 0.01 0.01 81 1016.4
20260502184715 57 205 1.0 7.0 0.01 0.01 0.01 83 1016.5
20260502184212 56 298 2.0 4.0 0.01 0.01 0.01 83 1016.6
20260502183713 56 294 1.0 4.0 0.01 0.01 0.01 83 1016.7
20260502183213 56 302 0.0 2.0 0.01 0.01 0.01 85 1016.7
20260502182710 56 288 1.0 4.0 0.01 0.01 0.01 84 1016.7
20260502182209 56 263 1.0 4.0 0.01 0.01 0.01 84 1016.8
20260502181708 56 308 1.0 3.0 0.01 0.01 0.01 84 1016.8
20260502181210 56 278 1.0 4.0 0.01 0.01 0.01 86 1016.8
20260502180708 56 82 2.0 4.0 0.01 0.01 0.01 89 1016.6
20260502180209 55 250 1.0 4.0 0.01 0.01 0.01 88 1016.6
20260502170125 54 70 1.0 6.0 0.00 0.00 0.00 83 1016.9
20260502164058 54 327 1.0 4.0 0.00 0.00 0.00 83 1016.9
20260502163557 54 277 1.0 4.0 0.00 0.00 0.00 84 1016.9
20260502163552 54 66 1.0 3.0 0.00 0.00 0.00 84 1016.9
20260502162540 53 24 0.0 4.0 0.00 0.00 0.00 84 1016.9
20260502162034 53 237 1.0 4.0 0.00 0.00 0.00 85 1017.1
20260502161531 53 338 1.0 6.0 0.00 0.00 0.00 85 1016.9
20260502161527 53 15 1.0 6.0 0.00 0.00 0.00 84 1016.9
20260502160516 53 305 0.0 3.0 0.00 0.00 0.00 85 1017.0
20260502151922 51 327 0.0 2.0 0.00 0.00 0.00 86 1016.8
20260502151416 50 327 0.0 3.0 0.00 0.00 0.00 86 1016.8
20260502150910 50 317 0.0 3.0 0.00 0.00 0.00 86 1016.7
20260502150404 50 286 0.0 2.0 0.00 0.00 0.00 86 1016.9
20260502130748 49 244 0.0 1.0 0.00 0.00 0.00 87 1017.0
20260502130247 49 292 0.0 1.0 0.00 0.00 0.00 87 1017.0
20260502123747 50 277 0.0 2.0 0.00 0.00 0.00 86 1016.9
20260502123248 50 286 0.0 1.0 0.00 0.00 0.00 86 1016.9
20260502122748 50 286 0.0 2.0 0.00 0.00 0.00 86 1016.8
20260502122248 50 286 0.0 2.0 0.00 0.00 0.00 86 1016.8
20260502121748 50 281 0.0 2.0 0.00 0.00 0.00 86 1016.9
20260502121248 50 288 0.0 2.0 0.00 0.00 0.00 86 1016.9
20260502120747 50 288 0.0 2.0 0.00 0.00 0.00 86 1016.8
20260502120247 50 256 0.0 2.0 0.00 0.00 0.00 86 1016.8
20260502115748 50 256 0.0 2.0 0.00 0.00 0.00 86 1016.8
20260502115248 50 256 0.0 2.0 0.00 0.00 0.00 86 1016.8
20260502114748 50 256 0.0 1.0 0.00 0.00 0.00 85 1016.8
20260502114246 50 255 0.0 2.0 0.00 0.00 0.00 85 1016.9
20260502113745 50 256 0.0 2.0 0.00 0.00 0.00 85 1016.9
20260502113249 50 300 0.0 1.0 0.00 0.00 0.00 85 1016.8
20260502112744 50 285 0.0 1.0 0.00 0.00 0.00 84 1016.7
20260502112237 50 285 0.0 1.0 0.00 0.00 0.00 84 1016.7
20260502111731 50 307 0.0 1.0 0.00 0.00 0.00 84 1016.7
20260502111223 50 307 0.0 1.0 0.00 0.00 0.00 84 1016.7
20260502110719 50 307 0.0 1.0 0.00 0.00 0.00 83 1016.7
20260502110210 51 307 0.0 1.0 0.00 0.00 0.00 83 1016.8
20260502105704 51 307 0.0 1.0 0.00 0.00 0.00 83 1016.7
20260502105157 51 307 0.0 1.0 0.00 0.00 0.00 83 1016.8
20260502104652 51 307 0.0 2.0 0.00 0.00 0.00 83 1016.7
20260502104145 51 303 0.0 2.0 0.00 0.00 0.00 82 1016.7
20260502103639 51 323 0.0 1.0 0.00 0.00 0.00 82 1016.7
20260502103133 51 320 0.0 1.0 0.00 0.00 0.00 82 1016.9
20260502102627 51 320 0.0 0.0 0.00 0.00 0.00 82 1016.9
20260502102126 52 320 0.0 0.0 0.00 0.00 0.00 82 1017.0
20260502102118 52 323 0.0 1.0 0.00 0.00 0.00 82 1016.9
20260502101109 52 323 0.0 2.0 0.00 0.00 0.00 82 1016.8
20260502100603 52 323 0.0 2.0 0.00 0.00 0.00 82 1016.8
20260502091508 53 316 0.0 8.0 0.00 0.00 0.00 79 1017.0
20260502091503 53 276 0.0 8.0 0.00 0.00 0.00 79 1016.9
20260502090452 53 46 0.0 3.0 0.00 0.00 0.00 79 1016.9
20260502071321 54 227 0.0 4.0 0.00 0.00 0.00 80 1017.8
20260502070819 54 312 0.0 2.0 0.00 0.00 0.00 80 1017.7
20260502070317 54 281 0.0 2.0 0.00 0.00 0.00 80 1017.9
20260502065822 54 279 0.0 2.0 0.00 0.00 0.00 81 1017.7
20260502065813 54 281 0.0 2.0 0.00 0.00 0.00 80 1017.9
20260502064811 54 296 0.0 2.0 0.00 0.00 0.00 81 1017.7
20260502064312 54 318 0.0 2.0 0.00 0.00 0.00 81 1017.7
20260502063813 54 299 0.0 2.0 0.00 0.00 0.00 81 1017.7
20260502063809 54 292 0.0 1.0 0.00 0.00 0.00 81 1017.7
20260502062807 54 292 0.0 1.0 0.00 0.00 0.00 82 1017.7
20260502062306 54 292 0.0 1.0 0.00 0.00 0.00 82 1017.6
20260502061808 54 292 0.0 2.0 0.00 0.00 0.00 81 1017.7
20260502061259 54 292 0.0 2.0 0.00 0.00 0.00 81 1017.7
20260502060754 54 276 0.0 2.0 0.00 0.00 0.00 81 1017.7
20260502060253 54 216 0.0 2.0 0.00 0.00 0.00 81 1017.9
20260502055752 54 314 0.0 2.0 0.00 0.00 0.00 82 1017.9
20260502055249 54 314 0.0 2.0 0.00 0.00 0.00 82 1017.8
20260502054750 54 269 0.0 0.0 0.00 0.00 0.00 82 1017.8
20260502054256 54 271 0.0 1.0 0.00 0.00 0.00 82 1017.7
20260502054247 54 271 0.0 1.0 0.00 0.00 0.00 82 1017.7
20260502053248 54 271 0.0 0.0 0.00 0.00 0.00 81 1017.7
20260502052753 54 321 0.0 0.0 0.00 0.00 0.00 81 1017.7
20260502052253 54 323 0.0 1.0 0.00 0.00 0.00 81 1017.7
20260502051752 54 323 0.0 1.0 0.00 0.00 0.00 81 1017.6
20260502051252 54 312 0.0 2.0 0.00 0.00 0.00 81 1017.6
20260502050752 54 242 0.0 1.0 0.00 0.00 0.00 81 1017.5
20260502050748 54 312 0.0 2.0 0.00 0.00 0.00 81 1017.5
20260502045748 54 242 0.0 2.0 0.00 0.00 0.00 81 1017.5
20260502045249 54 252 0.0 2.0 0.00 0.00 0.00 80 1017.6
20260502044748 54 263 0.0 3.0 0.00 0.00 0.00 80 1017.6
20260502044248 55 263 0.0 3.0 0.00 0.00 0.00 80 1017.3
20260502043749 55 210 0.0 3.0 0.00 0.00 0.00 79 1017.3
20260502043248 55 277 0.0 3.0 0.00 0.00 0.00 79 1017.3
20260502042747 55 355 0.0 4.0 0.00 0.00 0.00 79 1017.3
20260502042248 55 244 0.0 4.0 0.00 0.00 0.00 79 1017.2
20260502042125 55 280 1.0 4.0 0.00 0.00 0.00 78 1016.8
20260502042016 55 198 0.0 4.0 0.00 0.00 0.00 79 1017.0
20260502040745 55 318 1.0 4.0 0.00 0.00 0.00 78 1016.7
20260502040517 56 134 1.0 4.0 0.00 0.00 0.00 78 1016.7
20260502040354 56 178 1.0 7.0 0.00 0.00 0.00 77 1016.8
20260502035745 56 299 1.0 7.0 0.00 0.00 0.00 77 1016.7
20260502034745 56 187 1.0 4.0 0.00 0.00 0.00 76 1016.6
20260502034250 57 337 1.0 4.0 0.00 0.00 0.00 75 1016.7